Regional Weather Roundup
Issued by NWS

Home | Current Version | Previous Version | Text Only | Print | Product List | Glossary On
Versions: 1 2 3 4 5 6 7 8 9 10 11 12 13 14 15 16 17 18 19 20 21 22 23 24 25 26 27 28 29 30 31 32 33 34 35 36 37 38 39 40 41 42 43 44 45 46 47 48 49 50
748
ASPQ40 PGUM 271312
RWRPQ
WEATHER ROUNDUP FOR THE MARIANAS AND MICRONESIA
NATIONAL WEATHER SERVICE TIYAN GU
1100 PM CHST TUE JUN 27 2017

GUZ001>004-271400-
MARIANA ISLANDS-

CITY           SKY/WX    TMP DP  RH WIND       PRES   REMARKS
GUAM AIRPORT   PTCLDY    82  79  89 E8        29.94F HX  93
ANDERSEN AFB   PTCLDY    81  75  83 E10       29.95F
ROTA AIRPORT   NOT AVBL
TINIAN AP      NOT AVBL
SAIPAN AP      PTCLDY    84  77  79 E9        29.94S HX  94

$$

PMZ161-271400-
REPUBLIC OF PALAU-

CITY           SKY/WX    TMP DP  RH WIND       PRES   REMARKS
KOROR AP       MOCLDY    77  75  94 CALM      29.86R
KOROR WSO      MOCLDY    82  79  89 S9        29.88R HX  93

$$

PMZ171>174-271400-
FEDERATED STATES OF MICRONESIA-

CITY           SKY/WX    TMP DP  RH WIND       PRES   REMARKS
YAP AIRPORT    MOCLDY    81  73  78 VRB6      29.87R
CHUUK AP       CLOUDY    79  77  94 VRB6      29.90S
POHNPEI AP     NOT AVBL
POHNPEI WSO    CLOUDY    81  77  89 NE5       29.88S
KOSRAE AP      NOT AVBL

$$

PMZ181-271400-
REPUBLIC OF THE MARSHALL ISLANDS-

CITY           SKY/WX    TMP DP  RH WIND       PRES   REMARKS
KWAJALEIN AP   PTCLDY    82  73  74 E15       29.85F
MAJURO AP      NOT AVBL
MAJURO WSO     PTCLDY    82  77  83 E7        29.81F HX  91

$$





USA.gov is the U.S. government's official web portal to all federal, state and local government web resources and services.